Time,TemperatureF,DewpointF,PressureIn,WindDirection,WindDirectionDegrees,WindSpeedMPH,WindSpeedGustMPH,Humidity,HourlyPrecipIn,Conditions,Clouds,dailyrainin,SoftwareType,DateUTC
2013-01-21 00:05:00,16.3,10.1,30.19,WSW,245,2.0,2.0,76,0.00,,,0.00,Wunderground v.1.15,2013-01-21 05:05:00,
2013-01-21 00:10:00,16.3,10.1,30.18,WSW,255,1.0,2.0,76,0.00,,,0.00,Wunderground v.1.15,2013-01-21 05:10:00,
2013-01-21 00:15:00,16.4,10.2,30.19,SW,224,2.0,3.0,76,0.00,,,0.00,Wunderground v.1.15,2013-01-21 05:15:00,
2013-01-21 00:20:00,16.5,10.3,30.19,SW,228,2.0,2.0,76,0.00,,,0.00,Wunderground v.1.15,2013-01-21 05:20:00,
2013-01-21 00:25:00,16.6,10.3,30.19,WSW,257,2.0,2.0,76,0.00,,,0.00,Wunderground v.1.15,2013-01-21 05:25:00,
2013-01-21 00:30:00,16.6,10.1,30.18,WSW,255,1.0,1.0,75,0.00,,,0.00,Wunderground v.1.15,2013-01-21 05:30:00,
2013-01-21 00:35:00,16.7,10.4,30.18,WSW,246,1.0,2.0,76,0.00,,,0.00,Wunderground v.1.15,2013-01-21 05:35:00,
2013-01-21 00:40:00,16.7,10.1,30.18,WSW,239,1.0,2.0,75,0.00,,,0.00,Wunderground v.1.15,2013-01-21 05:40:00,
2013-01-21 00:45:00,16.8,10.2,30.18,WSW,253,1.0,2.0,75,0.00,,,0.00,Wunderground v.1.15,2013-01-21 05:45:00,
2013-01-21 00:50:00,16.8,10.2,30.17,SW,229,1.0,2.0,75,0.00,,,0.00,Wunderground v.1.15,2013-01-21 05:50:00,
2013-01-21 01:00:00,16.9,10.3,30.17,WNW,290,1.0,1.0,75,0.00,,,0.00,Wunderground v.1.15,2013-01-21 06:00:00,
2013-01-21 01:10:00,17.0,10.1,30.16,NW,323,3.0,3.0,74,0.00,,,0.00,Wunderground v.1.15,2013-01-21 06:10:00,
2013-01-21 01:15:00,17.1,9.9,30.16,WSW,255,4.0,4.0,73,0.00,,,0.00,Wunderground v.1.15,2013-01-21 06:15:00,
2013-01-21 01:20:00,17.1,9.3,30.16,WNW,298,4.0,7.0,71,0.00,,,0.00,Wunderground v.1.15,2013-01-21 06:20:00,
2013-01-21 01:25:00,17.2,9.7,30.16,NW,317,6.0,7.0,72,0.00,,,0.00,Wunderground v.1.15,2013-01-21 06:25:00,
2013-01-21 01:35:00,17.2,9.7,30.16,WNW,295,5.0,7.0,72,0.00,,,0.00,Wunderground v.1.15,2013-01-21 06:35:00,
2013-01-21 01:40:00,17.2,9.7,30.16,WNW,285,7.0,7.0,72,0.00,,,0.00,Wunderground v.1.15,2013-01-21 06:40:00,
2013-01-21 01:45:00,17.1,9.6,30.16,WNW,292,8.0,8.0,72,0.00,,,0.00,Wunderground v.1.15,2013-01-21 06:45:00,
2013-01-21 01:50:00,17.0,9.8,30.16,WNW,285,8.0,10.0,73,0.00,,,0.00,Wunderground v.1.15,2013-01-21 06:50:00,
2013-01-21 01:55:00,16.9,10.0,30.16,WNW,290,8.0,10.0,74,0.00,,,0.00,Wunderground v.1.15,2013-01-21 06:55:00,
2013-01-21 02:00:00,16.8,10.2,30.15,WNW,295,7.0,7.0,75,0.00,,,0.00,Wunderground v.1.15,2013-01-21 07:00:00,
2013-01-21 02:10:00,16.7,10.4,30.15,WNW,285,6.0,6.0,76,0.00,,,0.00,Wunderground v.1.15,2013-01-21 07:10:00,
2013-01-21 02:15:00,16.7,10.7,30.16,West,281,6.0,6.0,77,0.00,,,0.00,Wunderground v.1.15,2013-01-21 07:15:00,
2013-01-21 02:20:00,16.6,10.9,30.16,WNW,284,5.0,5.0,78,0.00,,,0.00,Wunderground v.1.15,2013-01-21 07:20:00,
2013-01-21 02:25:00,16.6,11.2,30.16,WSW,257,3.0,5.0,79,0.00,,,0.00,Wunderground v.1.15,2013-01-21 07:25:00,
2013-01-21 02:30:00,16.5,11.4,30.15,SW,226,3.0,3.0,80,0.00,,,0.00,Wunderground v.1.15,2013-01-21 07:30:00,
2013-01-21 02:40:00,16.3,11.5,30.15,WNW,302,3.0,3.0,81,0.00,,,0.00,Wunderground v.1.15,2013-01-21 07:40:00,
2013-01-21 02:45:00,16.2,11.7,30.15,WNW,287,3.0,3.0,82,0.00,,,0.00,Wunderground v.1.15,2013-01-21 07:45:00,
2013-01-21 02:50:00,16.2,11.9,30.15,WNW,288,3.0,4.0,83,0.00,,,0.00,Wunderground v.1.15,2013-01-21 07:50:00,
2013-01-21 02:55:00,16.1,11.8,30.15,West,278,3.0,4.0,83,0.00,,,0.00,Wunderground v.1.15,2013-01-21 07:55:00,
2013-01-21 03:00:00,16.1,12.1,30.15,West,260,3.0,3.0,84,0.00,,,0.00,Wunderground v.1.15,2013-01-21 08:00:00,
2013-01-21 03:10:00,16.0,12.3,30.15,WNW,293,3.0,3.0,85,0.00,,,0.00,Wunderground v.1.15,2013-01-21 08:10:00,
2013-01-21 03:15:00,15.9,12.5,30.15,West,278,2.0,4.0,86,0.00,,,0.00,Wunderground v.1.15,2013-01-21 08:15:00,
2013-01-21 03:20:00,15.8,12.4,30.14,NW,309,3.0,3.0,86,0.00,,,0.00,Wunderground v.1.15,2013-01-21 08:20:00,
2013-01-21 03:25:00,15.8,12.1,30.14,West,267,4.0,4.0,85,0.00,,,0.00,Wunderground v.1.15,2013-01-21 08:25:00,
2013-01-21 03:30:00,15.8,12.1,30.14,West,267,5.0,5.0,85,0.00,,,0.00,Wunderground v.1.15,2013-01-21 08:30:00,
2013-01-21 03:35:00,15.8,12.1,30.14,WNW,291,4.0,5.0,85,0.00,,,0.00,Wunderground v.1.15,2013-01-21 08:35:00,
2013-01-21 03:40:00,15.8,12.1,30.14,SW,229,3.0,4.0,85,0.00,,,0.00,Wunderground v.1.15,2013-01-21 08:40:00,
2013-01-21 03:45:00,15.6,11.9,30.13,West,269,3.0,4.0,85,0.00,,,0.00,Wunderground v.1.15,2013-01-21 08:45:00,
2013-01-21 03:50:00,15.4,11.7,30.13,West,276,4.0,5.0,85,0.00,,,0.00,Wunderground v.1.15,2013-01-21 08:50:00,
2013-01-21 04:00:00,15.2,11.5,30.13,West,279,4.0,5.0,85,0.00,,,0.00,Wunderground v.1.15,2013-01-21 09:00:00,
2013-01-21 04:10:00,15.1,11.1,30.12,WSW,248,3.0,5.0,84,0.00,,,0.00,Wunderground v.1.15,2013-01-21 09:10:00,
2013-01-21 04:15:00,15.1,10.9,30.12,SW,219,3.0,5.0,83,0.00,,,0.00,Wunderground v.1.15,2013-01-21 09:15:00,
2013-01-21 04:20:00,15.1,10.6,30.12,WSW,246,3.0,3.0,82,0.00,,,0.00,Wunderground v.1.15,2013-01-21 09:20:00,
2013-01-21 04:25:00,15.3,10.2,30.12,WSW,257,4.0,4.0,80,0.00,,,0.00,Wunderground v.1.15,2013-01-21 09:25:00,
2013-01-21 04:30:00,15.4,10.3,30.12,WSW,250,6.0,7.0,80,0.00,,,0.00,Wunderground v.1.15,2013-01-21 09:30:00,
2013-01-21 04:35:00,15.5,9.9,30.11,WSW,248,6.0,7.0,78,0.00,,,0.00,Wunderground v.1.15,2013-01-21 09:35:00,
2013-01-21 04:45:00,15.4,9.5,30.11,WNW,291,4.0,15.0,77,0.00,,,0.00,Wunderground v.1.15,2013-01-21 09:45:00,
2013-01-21 04:50:00,15.5,9.3,30.11,WNW,293,7.0,13.0,76,0.00,,,0.00,Wunderground v.1.15,2013-01-21 09:50:00,
2013-01-21 04:55:00,15.4,8.9,30.11,West,280,9.0,13.0,75,0.00,,,0.00,Wunderground v.1.15,2013-01-21 09:55:00,
2013-01-21 05:00:00,15.5,9.0,30.11,WNW,293,9.0,9.0,75,0.00,,,0.00,Wunderground v.1.15,2013-01-21 10:00:00,
2013-01-21 05:10:00,15.4,8.6,30.11,WNW,287,8.0,8.0,74,0.00,,,0.00,Wunderground v.1.15,2013-01-21 10:10:00,
2013-01-21 05:20:00,15.4,8.6,30.10,NW,309,6.0,6.0,74,0.00,,,0.00,Wunderground v.1.15,2013-01-21 10:20:00,
2013-01-21 05:25:00,15.3,8.2,30.10,WNW,283,6.0,6.0,73,0.00,,,0.00,Wunderground v.1.15,2013-01-21 10:25:00,
2013-01-21 05:30:00,15.3,8.5,30.10,WNW,297,6.0,9.0,74,0.00,,,0.00,Wunderground v.1.15,2013-01-21 10:30:00,
2013-01-21 05:35:00,15.2,8.1,30.10,WNW,285,7.0,9.0,73,0.00,,,0.00,Wunderground v.1.15,2013-01-21 10:35:00,
2013-01-21 05:40:00,15.2,8.1,30.10,West,281,8.0,8.0,73,0.00,,,0.00,Wunderground v.1.15,2013-01-21 10:40:00,
2013-01-21 05:50:00,15.2,8.1,30.11,WNW,301,8.0,11.0,73,0.00,,,0.00,Wunderground v.1.15,2013-01-21 10:50:00,
2013-01-21 05:55:00,15.1,8.0,30.10,WNW,294,8.0,11.0,73,0.00,,,0.00,Wunderground v.1.15,2013-01-21 10:55:00,
2013-01-21 06:00:00,15.0,8.2,30.11,WNW,295,9.0,9.0,74,0.00,,,0.00,Wunderground v.1.15,2013-01-21 11:00:00,
2013-01-21 06:10:00,14.8,8.0,30.10,West,266,7.0,7.0,74,0.00,,,0.00,Wunderground v.1.15,2013-01-21 11:10:00,
2013-01-21 06:15:00,14.7,8.5,30.10,WNW,288,7.0,8.0,76,0.00,,,0.00,Wunderground v.1.15,2013-01-21 11:15:00,
2013-01-21 06:25:00,14.4,8.8,30.10,WNW,294,7.0,12.0,78,0.00,,,0.00,Wunderground v.1.15,2013-01-21 11:25:00,
2013-01-21 06:30:00,14.3,9.0,30.10,WSW,256,6.0,6.0,79,0.00,,,0.00,Wunderground v.1.15,2013-01-21 11:30:00,
2013-01-21 06:35:00,14.1,9.1,30.10,WNW,284,5.0,6.0,80,0.00,,,0.00,Wunderground v.1.15,2013-01-21 11:35:00,
2013-01-21 06:40:00,14.0,9.0,30.10,SW,231,6.0,6.0,80,0.00,,,0.00,Wunderground v.1.15,2013-01-21 11:40:00,
2013-01-21 06:45:00,13.9,9.4,30.10,SW,236,5.0,11.0,82,0.00,,,0.00,Wunderground v.1.15,2013-01-21 11:45:00,
2013-01-21 06:55:00,13.7,9.5,30.10,WNW,285,6.0,7.0,83,0.00,,,0.00,Wunderground v.1.15,2013-01-21 11:55:00,
2013-01-21 07:00:00,13.6,9.4,30.10,WNW,302,5.0,5.0,83,0.00,,,0.00,Wunderground v.1.15,2013-01-21 12:00:00,
2013-01-21 07:10:00,13.5,9.3,30.10,West,262,4.0,7.0,83,0.00,,,0.00,Wunderground v.1.15,2013-01-21 12:10:00,
2013-01-21 07:15:00,13.4,9.2,30.10,WNW,291,4.0,7.0,83,0.00,,,0.00,Wunderground v.1.15,2013-01-21 12:15:00,
2013-01-21 07:20:00,13.4,9.5,30.10,WNW,302,5.0,5.0,84,0.00,,,0.00,Wunderground v.1.15,2013-01-21 12:20:00,
2013-01-21 07:25:00,13.4,9.2,30.10,WSW,257,5.0,5.0,83,0.00,,,0.00,Wunderground v.1.15,2013-01-21 12:25:00,
2013-01-21 07:30:00,13.4,9.5,30.10,West,276,5.0,5.0,84,0.00,,,0.00,Wunderground v.1.15,2013-01-21 12:30:00,
2013-01-21 07:35:00,13.4,9.5,30.10,WSW,245,5.0,7.0,84,0.00,,,0.00,Wunderground v.1.15,2013-01-21 12:35:00,
2013-01-21 07:40:00,13.3,9.4,30.10,WSW,256,6.0,7.0,84,0.00,,,0.00,Wunderground v.1.15,2013-01-21 12:40:00,
2013-01-21 07:45:00,13.2,9.3,30.09,West,278,6.0,8.0,84,0.00,,,0.00,Wunderground v.1.15,2013-01-21 12:45:00,
2013-01-21 07:55:00,13.2,9.0,30.10,West,278,6.0,6.0,83,0.00,,,0.00,Wunderground v.1.15,2013-01-21 12:55:00,
2013-01-21 08:00:00,13.1,8.6,30.09,WNW,287,7.0,7.0,82,0.00,,,0.00,Wunderground v.1.15,2013-01-21 13:00:00,
2013-01-21 08:10:00,13.0,8.5,30.09,WNW,283,6.0,6.0,82,0.00,,,0.00,Wunderground v.1.15,2013-01-21 13:10:00,
2013-01-21 08:15:00,13.0,8.5,30.09,WSW,257,5.0,9.0,82,0.00,,,0.00,Wunderground v.1.15,2013-01-21 13:15:00,
2013-01-21 08:20:00,12.9,8.4,30.09,West,274,7.0,7.0,82,0.00,,,0.00,Wunderground v.1.15,2013-01-21 13:20:00,
2013-01-21 08:30:00,12.7,8.5,30.09,West,276,7.0,7.0,83,0.00,,,0.00,Wunderground v.1.15,2013-01-21 13:30:00,
2013-01-21 08:35:00,12.6,8.4,30.09,WNW,300,7.0,7.0,83,0.00,,,0.00,Wunderground v.1.15,2013-01-21 13:35:00,
2013-01-21 08:40:00,12.6,8.4,30.09,WNW,295,7.0,7.0,83,0.00,,,0.00,Wunderground v.1.15,2013-01-21 13:40:00,
2013-01-21 08:45:00,12.6,8.4,30.09,West,278,6.0,7.0,83,0.00,,,0.00,Wunderground v.1.15,2013-01-21 13:45:00,
2013-01-21 08:50:00,12.7,8.2,30.09,WNW,294,7.0,7.0,82,0.00,,,0.00,Wunderground v.1.15,2013-01-21 13:50:00,
2013-01-21 08:55:00,12.7,8.0,30.09,West,278,7.0,11.0,81,0.00,,,0.00,Wunderground v.1.15,2013-01-21 13:55:00,
2013-01-21 09:00:00,12.7,8.0,30.09,West,269,9.0,13.0,81,0.00,,,0.00,Wunderground v.1.15,2013-01-21 14:00:00,
2013-01-21 09:10:00,12.8,8.6,30.10,WNW,286,7.0,11.0,83,0.00,,,0.00,Wunderground v.1.15,2013-01-21 14:10:00,
2013-01-21 09:15:00,12.6,8.4,30.11,West,281,7.0,11.0,83,0.00,,,0.00,Wunderground v.1.15,2013-01-21 14:15:00,
2013-01-21 09:20:00,12.4,8.0,30.11,WNW,284,9.0,17.0,82,0.00,,,0.00,Wunderground v.1.15,2013-01-21 14:20:00,
2013-01-21 09:25:00,12.3,7.9,30.11,WNW,284,11.0,17.0,82,0.00,,,0.00,Wunderground v.1.15,2013-01-21 14:25:00,
2013-01-21 09:35:00,12.6,7.9,30.11,WNW,295,10.0,14.0,81,0.00,,,0.00,Wunderground v.1.15,2013-01-21 14:35:00,
2013-01-21 09:40:00,12.6,7.3,30.11,West,271,9.0,15.0,79,0.00,,,0.00,Wunderground v.1.15,2013-01-21 14:40:00,
2013-01-21 09:45:00,12.5,7.5,30.11,WNW,285,10.0,15.0,80,0.00,,,0.00,Wunderground v.1.15,2013-01-21 14:45:00,
2013-01-21 09:50:00,12.6,7.3,30.11,West,266,9.0,9.0,79,0.00,,,0.00,Wunderground v.1.15,2013-01-21 14:50:00,
2013-01-21 09:55:00,12.6,7.6,30.11,West,278,9.0,9.0,80,0.00,,,0.00,Wunderground v.1.15,2013-01-21 14:55:00,
2013-01-21 10:00:00,12.6,7.9,30.11,SW,225,9.0,9.0,81,0.00,,,0.00,Wunderground v.1.15,2013-01-21 15:00:00,
2013-01-21 10:10:00,12.8,8.3,30.11,WNW,295,9.0,9.0,82,0.00,,,0.00,Wunderground v.1.15,2013-01-21 15:10:00,
2013-01-21 10:15:00,13.0,8.8,30.11,NE,41,7.0,9.0,83,0.00,,,0.00,Wunderground v.1.15,2013-01-21 15:15:00,
2013-01-21 10:20:00,13.0,8.5,30.11,NW,306,9.0,16.0,82,0.00,,,0.00,Wunderground v.1.15,2013-01-21 15:20:00,
2013-01-21 10:25:00,12.6,8.7,30.11,West,281,10.0,16.0,84,0.00,,,0.00,Wunderground v.1.15,2013-01-21 15:25:00,
2013-01-21 10:30:00,12.2,8.8,30.11,WNW,283,9.0,9.0,86,0.00,,,0.00,Wunderground v.1.15,2013-01-21 15:30:00,
2013-01-21 10:40:00,12.0,8.9,30.11,SW,233,8.0,10.0,87,0.00,,,0.00,Wunderground v.1.15,2013-01-21 15:40:00,
2013-01-21 10:45:00,12.1,9.0,30.11,WNW,291,8.0,10.0,87,0.00,,,0.00,Wunderground v.1.15,2013-01-21 15:45:00,
2013-01-21 10:50:00,12.1,8.7,30.11,WNW,290,9.0,16.0,86,0.00,,,0.00,Wunderground v.1.15,2013-01-21 15:50:00,
2013-01-21 10:55:00,11.9,8.8,30.11,WNW,290,12.0,16.0,87,0.00,,,0.00,Wunderground v.1.15,2013-01-21 15:55:00,
2013-01-21 11:00:00,12.0,8.9,30.11,West,278,11.0,11.0,87,0.00,,,0.00,Wunderground v.1.15,2013-01-21 16:00:00,
2013-01-21 11:10:00,12.2,9.3,30.11,WNW,289,8.0,8.0,88,0.00,,,0.00,Wunderground v.1.15,2013-01-21 16:10:00,
2013-01-21 11:15:00,11.9,8.8,30.11,WNW,299,9.0,9.0,87,0.00,,,0.00,Wunderground v.1.15,2013-01-21 16:15:00,
2013-01-21 11:20:00,12.1,9.2,30.11,WNW,301,10.0,14.0,88,0.00,,,0.00,Wunderground v.1.15,2013-01-21 16:20:00,
2013-01-21 11:25:00,12.2,8.8,30.11,WNW,288,9.0,14.0,86,0.00,,,0.00,Wunderground v.1.15,2013-01-21 16:25:00,
2013-01-21 11:30:00,11.8,8.4,30.11,WNW,297,12.0,14.0,86,0.00,,,0.00,Wunderground v.1.15,2013-01-21 16:30:00,
2013-01-21 11:35:00,11.3,8.2,30.11,WNW,291,13.0,15.0,87,0.00,,,0.00,Wunderground v.1.15,2013-01-21 16:35:00,
2013-01-21 11:45:00,11.0,8.1,30.12,WNW,291,13.0,14.0,88,0.00,,,0.00,Wunderground v.1.15,2013-01-21 16:45:00,
2013-01-21 11:50:00,11.0,8.1,30.11,WNW,295,11.0,11.0,88,0.00,,,0.00,Wunderground v.1.15,2013-01-21 16:50:00,
2013-01-21 11:55:00,11.0,8.1,30.11,WNW,297,10.0,11.0,88,0.00,,,0.00,Wunderground v.1.15,2013-01-21 16:55:00,
2013-01-21 12:00:00,11.2,8.3,30.11,WNW,301,8.0,9.0,88,0.00,,,0.00,Wunderground v.1.15,2013-01-21 17:00:00,
2013-01-21 12:10:00,10.9,6.8,30.10,WNW,291,10.0,13.0,83,0.00,,,0.00,Wunderground v.1.15,2013-01-21 17:10:00,
2013-01-21 12:15:00,11.0,6.3,30.10,WNW,301,12.0,13.0,81,0.00,,,0.00,Wunderground v.1.15,2013-01-21 17:15:00,
2013-01-21 12:20:00,11.0,6.0,30.10,NW,311,13.0,13.0,80,0.00,,,0.00,Wunderground v.1.15,2013-01-21 17:20:00,
2013-01-21 12:25:00,10.9,5.9,30.10,West,278,13.0,15.0,80,0.00,,,0.00,Wunderground v.1.15,2013-01-21 17:25:00,
2013-01-21 12:30:00,11.0,6.0,30.10,West,276,14.0,14.0,80,0.00,,,0.00,Wunderground v.1.15,2013-01-21 17:30:00,
2013-01-21 12:35:00,11.2,6.5,30.10,WNW,287,13.0,16.0,81,0.00,,,0.00,Wunderground v.1.15,2013-01-21 17:35:00,
2013-01-21 12:40:00,11.6,7.2,30.10,WNW,283,12.0,12.0,82,0.00,,,0.00,Wunderground v.1.15,2013-01-21 17:40:00,
2013-01-21 12:50:00,13.2,7.3,30.09,West,269,10.0,10.0,77,0.00,,,0.00,Wunderground v.1.15,2013-01-21 17:50:00,
2013-01-21 12:55:00,13.9,7.4,30.09,West,277,10.0,10.0,75,0.00,,,0.00,Wunderground v.1.15,2013-01-21 17:55:00,
2013-01-21 13:00:00,12.8,4.9,30.09,NW,307,12.0,12.0,70,0.00,,,0.00,Wunderground v.1.15,2013-01-21 18:00:00,
2013-01-21 13:10:00,11.7,4.1,30.09,WNW,288,12.0,12.0,71,0.00,,,0.00,Wunderground v.1.15,2013-01-21 18:10:00,
2013-01-21 13:20:00,12.5,5.5,30.09,NW,321,12.0,13.0,73,0.00,,,0.00,Wunderground v.1.15,2013-01-21 18:20:00,
2013-01-21 13:30:00,12.3,7.6,30.09,WNW,290,10.0,12.0,81,0.00,,,0.00,Wunderground v.1.15,2013-01-21 18:30:00,
2013-01-21 13:35:00,12.3,5.9,30.08,WNW,295,10.0,12.0,75,0.00,,,0.00,Wunderground v.1.15,2013-01-21 18:35:00,
2013-01-21 13:40:00,12.4,6.8,30.09,West,271,10.0,10.0,78,0.00,,,0.00,Wunderground v.1.15,2013-01-21 18:40:00,
2013-01-21 13:45:00,12.5,7.8,30.09,WNW,300,8.0,12.0,81,0.00,,,0.00,Wunderground v.1.15,2013-01-21 18:45:00,
2013-01-21 13:50:00,12.1,7.7,30.09,NW,306,8.0,8.0,82,0.00,,,0.00,Wunderground v.1.15,2013-01-21 18:50:00,
2013-01-21 13:55:00,11.7,7.3,30.09,WNW,293,8.0,9.0,82,0.00,,,0.00,Wunderground v.1.15,2013-01-21 18:55:00,
2013-01-21 14:00:00,11.2,7.3,30.09,WNW,288,9.0,14.0,84,0.00,,,0.00,Wunderground v.1.15,2013-01-21 19:00:00,
2013-01-21 14:05:00,11.1,7.7,30.09,WNW,285,10.0,14.0,86,0.00,,,0.00,Wunderground v.1.15,2013-01-21 19:05:00,
2013-01-21 14:15:00,10.9,6.5,30.09,NW,307,10.0,14.0,82,0.00,,,0.00,Wunderground v.1.15,2013-01-21 19:15:00,
2013-01-21 14:20:00,10.9,7.0,30.09,WNW,283,11.0,11.0,84,0.00,,,0.00,Wunderground v.1.15,2013-01-21 19:20:00,
2013-01-21 14:30:00,11.0,6.0,30.09,WNW,294,12.0,15.0,80,0.00,,,0.00,Wunderground v.1.15,2013-01-21 19:30:00,
2013-01-21 14:35:00,11.3,5.5,30.10,WNW,291,14.0,15.0,77,0.00,,,0.00,Wunderground v.1.15,2013-01-21 19:35:00,
2013-01-21 14:40:00,11.1,5.3,30.10,NW,311,13.0,13.0,77,0.00,,,0.00,Wunderground v.1.15,2013-01-21 19:40:00,
2013-01-21 14:45:00,10.9,6.2,30.10,WNW,291,15.0,21.0,81,0.00,,,0.00,Wunderground v.1.15,2013-01-21 19:45:00,
2013-01-21 14:50:00,10.3,5.9,30.10,WNW,293,16.0,18.0,82,0.00,,,0.00,Wunderground v.1.15,2013-01-21 19:50:00,
2013-01-21 15:00:00,9.6,4.7,30.11,West,277,17.0,17.0,80,0.00,,,0.00,Wunderground v.1.15,2013-01-21 20:00:00,
2013-01-21 15:10:00,9.6,4.7,30.11,WNW,284,16.0,16.0,80,0.00,,,0.00,Wunderground v.1.15,2013-01-21 20:10:00,
2013-01-21 15:15:00,9.7,5.0,30.11,WNW,288,14.0,16.0,81,0.00,,,0.00,Wunderground v.1.15,2013-01-21 20:15:00,
2013-01-21 15:20:00,10.2,5.8,30.12,WNW,296,12.0,12.0,82,0.00,,,0.00,Wunderground v.1.15,2013-01-21 20:20:00,
2013-01-21 15:25:00,9.9,6.0,30.12,West,281,12.0,15.0,84,0.00,,,0.00,Wunderground v.1.15,2013-01-21 20:25:00,
2013-01-21 15:35:00,10.0,4.5,30.11,WNW,293,14.0,21.0,78,0.00,,,0.00,Wunderground v.1.15,2013-01-21 20:35:00,
2013-01-21 15:40:00,10.0,4.2,30.12,West,281,15.0,16.0,77,0.00,,,0.00,Wunderground v.1.15,2013-01-21 20:40:00,
2013-01-21 15:45:00,10.2,4.7,30.13,WNW,288,13.0,16.0,78,0.00,,,0.00,Wunderground v.1.15,2013-01-21 20:45:00,
2013-01-21 15:50:00,10.2,5.0,30.13,WNW,295,11.0,11.0,79,0.00,,,0.00,Wunderground v.1.15,2013-01-21 20:50:00,
2013-01-21 15:55:00,10.5,5.5,30.13,NW,305,12.0,15.0,80,0.00,,,0.00,Wunderground v.1.15,2013-01-21 20:55:00,
2013-01-21 16:00:00,10.6,4.2,30.13,NW,306,13.0,22.0,75,0.00,,,0.00,Wunderground v.1.15,2013-01-21 21:00:00,
2013-01-21 16:10:00,9.8,2.6,30.13,WNW,288,15.0,20.0,72,0.00,,,0.00,Wunderground v.1.15,2013-01-21 21:10:00,
2013-01-21 16:15:00,9.5,2.0,30.14,WNW,297,14.0,20.0,71,0.00,,,0.00,Wunderground v.1.15,2013-01-21 21:15:00,
2013-01-21 16:20:00,9.6,2.7,30.14,WNW,298,14.0,14.0,73,0.00,,,0.00,Wunderground v.1.15,2013-01-21 21:20:00,
2013-01-21 16:25:00,9.7,3.7,30.14,WNW,287,13.0,14.0,76,0.00,,,0.00,Wunderground v.1.15,2013-01-21 21:25:00,
2013-01-21 16:30:00,9.2,4.0,30.14,WNW,290,12.0,12.0,79,0.00,,,0.00,Wunderground v.1.15,2013-01-21 21:30:00,
2013-01-21 16:40:00,8.4,4.0,30.15,NW,309,12.0,12.0,82,0.00,,,0.00,Wunderground v.1.15,2013-01-21 21:40:00,
2013-01-21 16:45:00,8.1,4.0,30.15,WNW,293,12.0,17.0,83,0.00,,,0.00,Wunderground v.1.15,2013-01-21 21:45:00,
2013-01-21 16:50:00,8.0,3.1,30.15,NW,323,11.0,13.0,80,0.00,,,0.00,Wunderground v.1.15,2013-01-21 21:50:00,
2013-01-21 16:55:00,8.0,2.0,30.15,WNW,287,11.0,14.0,76,0.00,,,0.00,Wunderground v.1.15,2013-01-21 21:55:00,
2013-01-21 17:00:00,8.0,2.8,30.15,WNW,297,12.0,12.0,79,0.00,,,0.00,Wunderground v.1.15,2013-01-21 22:00:00,
2013-01-21 17:10:00,7.8,3.2,30.15,WNW,295,11.0,11.0,81,0.00,,,0.00,Wunderground v.1.15,2013-01-21 22:10:00,
2013-01-21 17:15:00,7.7,3.6,30.15,NW,326,9.0,11.0,83,0.00,,,0.00,Wunderground v.1.15,2013-01-21 22:15:00,
2013-01-21 17:20:00,7.7,4.1,30.15,WNW,300,7.0,9.0,85,0.00,,,0.00,Wunderground v.1.15,2013-01-21 22:20:00,
2013-01-21 17:25:00,7.6,3.8,30.16,NW,304,8.0,13.0,84,0.00,,,0.00,Wunderground v.1.15,2013-01-21 22:25:00,
2013-01-21 17:30:00,7.6,3.5,30.16,WNW,295,9.0,12.0,83,0.00,,,0.00,Wunderground v.1.15,2013-01-21 22:30:00,
2013-01-21 17:35:00,7.5,3.7,30.16,WNW,284,9.0,12.0,84,0.00,,,0.00,Wunderground v.1.15,2013-01-21 22:35:00,
2013-01-21 17:40:00,7.4,3.6,30.16,WNW,289,8.0,8.0,84,0.00,,,0.00,Wunderground v.1.15,2013-01-21 22:40:00,
2013-01-21 17:50:00,7.3,3.7,30.16,WNW,285,7.0,7.0,85,0.00,,,0.00,Wunderground v.1.15,2013-01-21 22:50:00,
2013-01-21 17:55:00,7.3,4.0,30.16,WNW,291,7.0,7.0,86,0.00,,,0.00,Wunderground v.1.15,2013-01-21 22:55:00,
2013-01-21 18:00:00,7.1,3.8,30.16,WNW,285,6.0,10.0,86,0.00,,,0.00,Wunderground v.1.15,2013-01-21 23:00:00,
2013-01-21 18:10:00,7.0,3.4,30.16,WNW,291,6.0,8.0,85,0.00,,,0.00,Wunderground v.1.15,2013-01-21 23:10:00,
2013-01-21 18:15:00,7.1,3.5,30.16,WNW,294,7.0,8.0,85,0.00,,,0.00,Wunderground v.1.15,2013-01-21 23:15:00,
2013-01-21 18:20:00,7.1,3.8,30.16,WNW,295,8.0,8.0,86,0.00,,,0.00,Wunderground v.1.15,2013-01-21 23:20:00,
2013-01-21 18:25:00,7.1,3.8,30.16,WNW,286,7.0,8.0,86,0.00,,,0.00,Wunderground v.1.15,2013-01-21 23:25:00,
2013-01-21 18:30:00,7.1,3.8,30.16,WNW,290,6.0,8.0,86,0.00,,,0.00,Wunderground v.1.15,2013-01-21 23:30:00,
2013-01-21 18:35:00,7.0,3.2,30.16,NW,314,7.0,8.0,84,0.00,,,0.00,Wunderground v.1.15,2013-01-21 23:35:00,
2013-01-21 18:45:00,6.9,2.3,30.17,NW,307,8.0,8.0,81,0.00,,,0.00,Wunderground v.1.15,2013-01-21 23:45:00,
2013-01-21 18:50:00,7.0,2.7,30.17,WNW,294,8.0,8.0,82,0.00,,,0.00,Wunderground v.1.15,2013-01-21 23:50:00,
2013-01-21 18:55:00,6.9,2.8,30.17,NW,308,6.0,8.0,83,0.00,,,0.00,Wunderground v.1.15,2013-01-21 23:55:00,
2013-01-21 19:00:00,6.8,3.0,30.17,West,280,6.0,8.0,84,0.00,,,0.00,Wunderground v.1.15,2013-01-22 00:00:00,
2013-01-21 19:10:00,6.8,3.2,30.17,WNW,291,8.0,8.0,85,0.00,,,0.00,Wunderground v.1.15,2013-01-22 00:10:00,
2013-01-21 19:20:00,6.9,3.6,30.17,WNW,285,8.0,10.0,86,0.00,,,0.00,Wunderground v.1.15,2013-01-22 00:20:00,
2013-01-21 19:25:00,6.9,3.6,30.17,NW,316,7.0,10.0,86,0.00,,,0.00,Wunderground v.1.15,2013-01-22 00:25:00,
2013-01-21 19:30:00,7.0,3.9,30.17,West,273,6.0,6.0,87,0.00,,,0.00,Wunderground v.1.15,2013-01-22 00:30:00,
2013-01-21 19:35:00,7.0,3.9,30.17,NW,304,6.0,8.0,87,0.00,,,0.00,Wunderground v.1.15,2013-01-22 00:35:00,
2013-01-21 19:40:00,7.0,3.9,30.17,West,276,6.0,6.0,87,0.00,,,0.00,Wunderground v.1.15,2013-01-22 00:40:00,
2013-01-21 19:50:00,7.2,3.9,30.17,WNW,286,7.0,7.0,86,0.00,,,0.00,Wunderground v.1.15,2013-01-22 00:50:00,
2013-01-21 19:55:00,7.2,3.9,30.17,WNW,285,8.0,10.0,86,0.00,,,0.00,Wunderground v.1.15,2013-01-22 00:55:00,
2013-01-21 20:00:00,7.2,3.9,30.17,WNW,284,8.0,8.0,86,0.00,,,0.00,Wunderground v.1.15,2013-01-22 01:00:00,
2013-01-21 20:10:00,6.9,3.1,30.17,WNW,300,11.0,11.0,84,0.00,,,0.00,Wunderground v.1.15,2013-01-22 01:10:00,
2013-01-21 20:15:00,7.0,3.2,30.17,WNW,290,11.0,11.0,84,0.00,,,0.00,Wunderground v.1.15,2013-01-22 01:15:00,
2013-01-21 20:20:00,7.1,3.5,30.17,West,281,10.0,10.0,85,0.00,,,0.00,Wunderground v.1.15,2013-01-22 01:20:00,
2013-01-21 20:25:00,7.0,3.4,30.17,WNW,297,9.0,10.0,85,0.00,,,0.00,Wunderground v.1.15,2013-01-22 01:25:00,
2013-01-21 20:30:00,6.9,3.6,30.18,West,280,9.0,9.0,86,0.00,,,0.00,Wunderground v.1.15,2013-01-22 01:30:00,
2013-01-21 20:35:00,7.0,3.7,30.18,WNW,294,8.0,9.0,86,0.00,,,0.00,Wunderground v.1.15,2013-01-22 01:35:00,
2013-01-21 20:45:00,7.0,3.7,30.18,WNW,286,8.0,10.0,86,0.00,,,0.00,Wunderground v.1.15,2013-01-22 01:45:00,
2013-01-21 20:50:00,7.1,3.8,30.18,WNW,288,8.0,8.0,86,0.00,,,0.00,Wunderground v.1.15,2013-01-22 01:50:00,
2013-01-21 20:55:00,7.2,3.6,30.18,WNW,288,10.0,12.0,85,0.00,,,0.00,Wunderground v.1.15,2013-01-22 01:55:00,
2013-01-21 21:00:00,7.2,3.9,30.18,West,281,10.0,10.0,86,0.00,,,0.00,Wunderground v.1.15,2013-01-22 02:00:00,
2013-01-21 21:10:00,7.2,4.1,30.18,WNW,293,8.0,9.0,87,0.00,,,0.00,Wunderground v.1.15,2013-01-22 02:10:00,
2013-01-21 21:20:00,7.0,3.7,30.18,WNW,298,8.0,9.0,86,0.00,,,0.00,Wunderground v.1.15,2013-01-22 02:20:00,
2013-01-21 21:25:00,7.0,3.4,30.18,WSW,245,9.0,9.0,85,0.00,,,0.00,Wunderground v.1.15,2013-01-22 02:25:00,
2013-01-21 21:30:00,7.0,3.2,30.18,NW,307,10.0,11.0,84,0.00,,,0.00,Wunderground v.1.15,2013-01-22 02:30:00,
2013-01-21 21:35:00,7.1,3.3,30.19,WNW,297,9.0,11.0,84,0.00,,,0.00,Wunderground v.1.15,2013-01-22 02:35:00,
2013-01-21 21:40:00,7.0,3.4,30.19,WNW,287,8.0,8.0,85,0.00,,,0.00,Wunderground v.1.15,2013-01-22 02:40:00,
2013-01-21 21:50:00,6.8,3.5,30.19,WNW,290,6.0,6.0,86,0.00,,,0.00,Wunderground v.1.15,2013-01-22 02:50:00,
2013-01-21 21:55:00,6.8,3.5,30.19,WNW,298,7.0,9.0,86,0.00,,,0.00,Wunderground v.1.15,2013-01-22 02:55:00,
2013-01-21 22:00:00,6.8,3.5,30.19,WNW,299,7.0,7.0,86,0.00,,,0.00,Wunderground v.1.15,2013-01-22 03:00:00,
2013-01-21 22:10:00,6.8,3.2,30.19,NW,322,8.0,11.0,85,0.00,,,0.00,Wunderground v.1.15,2013-01-22 03:10:00,
2013-01-21 22:15:00,6.7,2.9,30.19,WNW,293,9.0,15.0,84,0.00,,,0.00,Wunderground v.1.15,2013-01-22 03:15:00,
2013-01-21 22:20:00,6.7,2.9,30.19,West,281,10.0,10.0,84,0.00,,,0.00,Wunderground v.1.15,2013-01-22 03:20:00,
2013-01-21 22:25:00,6.6,2.8,30.20,WNW,286,10.0,10.0,84,0.00,,,0.00,Wunderground v.1.15,2013-01-22 03:25:00,
2013-01-21 22:30:00,6.5,2.7,30.20,NW,311,10.0,10.0,84,0.00,,,0.00,Wunderground v.1.15,2013-01-22 03:30:00,
2013-01-21 22:35:00,6.4,2.6,30.20,NW,305,8.0,10.0,84,0.00,,,0.00,Wunderground v.1.15,2013-01-22 03:35:00,
2013-01-21 22:40:00,6.3,2.5,30.20,WNW,290,8.0,9.0,84,0.00,,,0.00,Wunderground v.1.15,2013-01-22 03:40:00,
2013-01-21 22:45:00,6.3,2.5,30.20,WNW,295,8.0,9.0,84,0.00,,,0.00,Wunderground v.1.15,2013-01-22 03:45:00,
2013-01-21 22:55:00,6.3,2.5,30.20,WNW,296,7.0,10.0,84,0.00,,,0.00,Wunderground v.1.15,2013-01-22 03:55:00,
2013-01-21 23:00:00,6.4,2.9,30.21,WNW,295,9.0,9.0,85,0.00,,,0.00,Wunderground v.1.15,2013-01-22 04:00:00,
2013-01-21 23:10:00,6.5,2.4,30.21,WNW,297,8.0,8.0,83,0.00,,,0.00,Wunderground v.1.15,2013-01-22 04:10:00,
2013-01-21 23:15:00,6.5,2.7,30.21,WNW,291,8.0,8.0,84,0.00,,,0.00,Wunderground v.1.15,2013-01-22 04:15:00,
2013-01-21 23:25:00,6.7,3.4,30.21,WNW,290,8.0,8.0,86,0.00,,,0.00,Wunderground v.1.15,2013-01-22 04:25:00,
2013-01-21 23:30:00,6.7,3.4,30.22,WNW,291,8.0,8.0,86,0.00,,,0.00,Wunderground v.1.15,2013-01-22 04:30:00,
2013-01-21 23:35:00,6.7,3.4,30.22,WNW,288,7.0,12.0,86,0.00,,,0.00,Wunderground v.1.15,2013-01-22 04:35:00,
2013-01-21 23:40:00,6.7,3.4,30.22,West,268,7.0,8.0,86,0.00,,,0.00,Wunderground v.1.15,2013-01-22 04:40:00,
2013-01-21 23:45:00,6.7,3.7,30.22,WNW,297,8.0,9.0,87,0.00,,,0.00,Wunderground v.1.15,2013-01-22 04:45:00,
2013-01-21 23:50:00,6.7,3.4,30.22,NW,312,7.0,9.0,86,0.00,,,0.00,Wunderground v.1.15,2013-01-22 04:50:00,